Starlink 35737

operational
NORAD ID: 66220 Int'l Des: 2025-244 Owner: SPXS Country: US Constellation: starlink
NOTLE

Starlink 35737について

説明を読み込み中...

リアルタイム位置

3D地球を読み込み中...

次回通過

高度履歴

Altitude vs Time

uPlot chart will show altitude changes over time

軌道要素

1 66220C 25244P 25301.73798611 .03566700 00000+0 49240-2 0 3010
2 66220 53.1569 134.0916 0011116 274.4438 325.4198 16.01820745 10
Epoch: Oct 28, 2025 • Age: 85 hours

現在のステータス

高度 190.1 km
速度 7.79 km/s
衛星直下点 -49.30°S, 171.97°W
打ち上げ日 Oct 28, 2025
運用期間 3 days
タイプ internet

技術仕様

分類 Payload
質量 575.00 kg
乾燥質量 530.00 kg
総質量 575.00 kg
長さ 0.30 m
直径 4.10 m
スパン 29.00 m
形状 Box + pan
製造者 SPXS
バスタイプ Starlink V2MO
フェーズステータス In Orbit
所有者/国 SPXS/US

大規模コンステレーション

Loading constellations...